This is the latest recevied weather packets stored in our database for station/object S51UL-6. If no packets are shown the sender has not sent any weather packets the latest 10 day(s).
| Time | Temp. | Humidity | Pressure | Rain* | Wind** | Luminosity | Snow |
|---|---|---|---|---|---|---|---|
| 1777660172 | 12.22° C | 53% | 1026.7 hPa | 0 mm | - | - | - |
| 1777659873 | 12.78° C | 52% | 1026.6 hPa | 0 mm | - | - | - |
| 1777659570 | 12.78° C | 51% | 1026.7 hPa | 0 mm | - | - | - |
| 1777659272 | 13.33° C | 50% | 1026.6 hPa | 0 mm | - | - | - |
| 1777658971 | 13.33° C | 49% | 1026.6 hPa | 0 mm | - | - | - |
| 1777658372 | 14.44° C | 47% | 1026.4 hPa | 0 mm | - | - | - |
| 1777657772 | 15° C | 45% | 1026.3 hPa | 0 mm | - | - | - |
| 1777657473 | 15.56° C | 44% | 1026.3 hPa | 0 mm | - | - | - |
| 1777656872 | 15.56° C | 43% | 1026.2 hPa | 0 mm | - | - | - |
| 1777656572 | 16.11° C | 43% | 1026 hPa | 0 mm | - | - | - |
| 1777656272 | 16.67° C | 43% | 1026.1 hPa | 0 mm | - | - | - |
| 1777655672 | 16.67° C | 42% | 1025.9 hPa | 0 mm | - | - | - |
| 1777655372 | 16.67° C | 41% | 1025.9 hPa | 0 mm | - | - | - |
| 1777654773 | 17.22° C | 41% | 1026 hPa | 0 mm | - | - | - |
| 1777654473 | 17.22° C | 41% | 1026 hPa | 0 mm | - | - | - |
| 1777654173 | 17.22° C | 40% | 1026 hPa | 0 mm | - | - | - |
| 1777653874 | 17.78° C | 40% | 1026 hPa | 0 mm | - | - | - |
| 1777653274 | 17.78° C | 40% | 1025.9 hPa | 0 mm | - | - | - |
| 1777652974 | 17.78° C | 40% | 1025.9 hPa | 0 mm | - | - | - |
| 1777652673 | 17.78° C | 39% | 1025.8 hPa | 0 mm | - | - | - |
| 1777652373 | 17.78° C | 39% | 1025.7 hPa | 0 mm | - | - | - |
| 1777652074 | 18.33° C | 39% | 1025.8 hPa | 0 mm | - | - | - |
| 1777651473 | 18.33° C | 38% | 1025.9 hPa | 0 mm | - | - | - |
| 1777651174 | 18.33° C | 38% | 1025.9 hPa | 0 mm | - | - | - |
| 1777650876 | 18.33° C | 38% | 1025.9 hPa | 0 mm | - | - | - |
* Rain latest hour (hover to see other rain measurements)
** Current wind speed in m/s (hover to see current wind gust speed)